Location: Unspecified
(41.1637°N, 24.2901°E)
Time: 15:37:03
(UTC+01:00)

ISS - Pass Details

Date: 16 January 2021
Orbit: 418 x 421 km, 51.6° (Epoch: 27 January)

Event Time Altitude Azimuth Distance (km) Brightness Sun altitude
Rises 18:35:26 0° 215° (SW) 2,356 0.6 -25.1°
Reaches altitude 10° 18:37:36 10° 207° (SSW) 1,497 -0.6 -25.5°
Enters shadow 18:38:11 14° 203° (SSW) 1,275 -1.0 -25.6°
